Location: Pitton
(51.0667°N, 1.7000°W)
Time: 04:08:59
(UTC+00:00)

Cosmos 1190 Rocket - Pass Details

Date: 17 September 2019
Orbit: 757 x 780 km, 74.1° (Epoch: 18 October)

Event Time Altitude Azimuth Distance (km) Brightness Sun altitude
Rises 19:54:33 0° 335° (NNW) 3,275 8.1 -15.6°
Reaches altitude 10° 19:56:57 10° 336° (NNW) 2,341 7.2 -15.9°
Maximum altitude 20:02:18 86° 66° (ENE) 785 4.0 -16.7°
Enters shadow 20:05:48 22° 154° (SSE) 1,645 5.3 -17.2°
